TimeEST,TemperatureF,Dew PointF,Humidity,Sea Level PressureIn,VisibilityMPH,Wind Direction,Wind SpeedMPH,Gust SpeedMPH,PrecipitationIn,Events,Conditions,WindDirDegrees,DateUTC
12:53 AM,72.0,62.1,71,30.15,10.0,ENE,15.0,21.9,N/A,,Scattered Clouds,60,2012-12-01 05:53:00
1:53 AM,72.0,62.1,71,30.14,10.0,ENE,12.7,21.9,N/A,,Partly Cloudy,70,2012-12-01 06:53:00
2:53 AM,72.0,61.0,68,30.13,10.0,NE,12.7,-,N/A,,Scattered Clouds,50,2012-12-01 07:53:00
3:53 AM,72.0,61.0,68,30.13,10.0,ENE,12.7,-,N/A,,Scattered Clouds,60,2012-12-01 08:53:00
5:53 AM,72.0,62.1,71,30.14,10.0,ENE,13.8,-,N/A,,Mostly Cloudy,60,2012-12-01 10:53:00
6:53 AM,72.0,62.1,71,30.15,10.0,ENE,12.7,-,N/A,,Mostly Cloudy,70,2012-12-01 11:53:00
7:53 AM,73.0,61.0,66,30.17,10.0,ENE,13.8,-,N/A,,Scattered Clouds,60,2012-12-01 12:53:00
8:53 AM,73.9,61.0,64,30.18,10.0,ENE,15.0,-,N/A,,Partly Cloudy,70,2012-12-01 13:53:00
9:53 AM,75.9,61.0,60,30.20,10.0,ENE,15.0,24.2,N/A,,Clear,70,2012-12-01 14:53:00
10:53 AM,77.0,61.0,58,30.20,10.0,ENE,16.1,-,N/A,,Partly Cloudy,70,2012-12-01 15:53:00
11:53 AM,77.0,61.0,58,30.19,10.0,ENE,13.8,-,N/A,,Partly Cloudy,60,2012-12-01 16:53:00
1:53 PM,75.9,60.1,58,30.16,10.0,ENE,17.3,-,N/A,,Scattered Clouds,70,2012-12-01 18:53:00
2:53 PM,75.0,61.0,62,30.14,10.0,ENE,16.1,-,N/A,,Scattered Clouds,60,2012-12-01 19:53:00
3:53 PM,75.0,60.1,60,30.15,10.0,ENE,12.7,-,N/A,,Partly Cloudy,60,2012-12-01 20:53:00
4:53 PM,73.9,62.1,66,30.15,10.0,NE,12.7,-,N/A,,Scattered Clouds,50,2012-12-01 21:53:00
5:53 PM,73.0,61.0,66,30.15,10.0,ENE,13.8,-,N/A,,Scattered Clouds,70,2012-12-01 22:53:00
6:53 PM,73.0,61.0,66,30.16,10.0,ENE,11.5,-,N/A,,Partly Cloudy,60,2012-12-01 23:53:00
7:53 PM,73.0,63.0,71,30.17,10.0,ENE,11.5,-,N/A,,Partly Cloudy,70,2012-12-02 00:53:00
8:53 PM,72.0,63.0,73,30.18,10.0,East,15.0,-,N/A,,Partly Cloudy,80,2012-12-02 01:53:00
9:53 PM,73.9,61.0,64,30.18,10.0,East,17.3,24.2,N/A,,Overcast,80,2012-12-02 02:53:00
10:53 PM,73.0,63.0,71,30.18,10.0,ENE,15.0,23.0,N/A,,Mostly Cloudy,60,2012-12-02 03:53:00
11:53 PM,73.0,63.0,71,30.18,10.0,ENE,15.0,-,N/A,,Partly Cloudy,70,2012-12-02 04:53:00